This demonstration page uses our WeatherBlox Daily Observations layout. Learn more.

Hourly Observations for February 2, 2019

Temp ( °F °C ) Dew Point ( °F °C ) Humidity (%) Winds ( mph kmh ) Pressure ( in mb ) Visibility ( mi km ) Precip ( " mm )
12:15 am 00:15 Clear 36 2.1 30 -1 80 80 SSW 10 17 30.04 1017 10 16.0934 0 0
12:35 am 00:35 Clear 35 1.6 30 -1.1 82 82 SSW 10 17 30.05 1018 10 16.0934 0 0
12:55 am 00:55 Clear 35 1.5 30 -1 84 84 SSW 12 19 30.04 1017 10 16.0934 0 0
1:15 am 01:15 Clear 35 1.5 31 -0.6 86 86 SSW 9 15 30.05 1018 10 16.0934 0 0
1:35 am 01:35 Clear 34 1.1 31 -0.5 89 89 SSW 10 17 30.04 1017 10 16.0934 0 0
1:55 am 01:55 Clear 34 1.1 32 0 92 92 SSW 13 20 30.03 1017 10 16.0934 0 0
2:15 am 02:15 Clear 35 1.4 33 0.4 93 93 SSW 14 22 30.03 1017 10 16.0934 0 0
2:35 am 02:35 Clear 34 1.2 32 0.2 93 93 S 9 15 30.02 1017 10 16.0934 0 0
2:55 am 02:55 Clear 33 0.6 32 0 96 96 S 6 9 30.03 1017 10 16.0934 0 0
3:15 am 03:15 Clear 33 0.5 32 0.1 97 97 SSW 5 7 30.02 1017 10 16.0934 0 0
3:35 am 03:35 Clear 33 0.5 33 0.3 99 99 S 8 13 30.02 1017 10 16.0934 0 0
3:55 am 03:55 Cloudy with Mist and Fog 32 0 32 0 100 100 S 8 13 30.01 1016 1 1.60934 0 0
4:15 am 04:15 Cloudy with Fog 32 0 32 0 100 100 SSW 9 15 30.01 1016 0.25 0.402335 0 0
4:35 am 04:35 Cloudy with Fog 33 0.5 33 0.5 100 100 SSW 6 9 30 1016 0.25 0.402335 0 0
4:55 am 04:55 Cloudy with Fog 34 1.1 34 1.1 100 100 SSW 12 19 29.98 1015 0.5 0.80467 0 0
5:15 am 05:15 Cloudy with Fog 35 1.5 35 1.5 100 100 SSW 12 19 29.98 1015 0.25 0.402335 0 0
5:35 am 05:35 Cloudy with Fog 36 2 36 2 100 100 SSW 12 19 29.98 1015 0.5 0.80467 0 0
5:55 am 05:55 Cloudy with Light Snow 35 1.8 35 1.8 100 100 SSW 12 19 29.97 1015 0.25 0.402335 0 0
6:15 am 06:15 Cloudy with Light Snow 35 1.7 35 1.7 100 100 SSW 9 15 29.97 1015 0.25 0.402335 0 0
6:35 am 06:35 Cloudy with Light Snow 35 1.7 35 1.7 100 100 SSW 10 17 29.96 1015 0.25 0.402335 0 0
6:55 am 06:55 Cloudy with Light Snow 35 1.6 35 1.6 100 100 SSW 9 15 29.96 1015 0.25 0.402335 0 0
7:15 am 07:15 Cloudy with Light Snow 35 1.7 35 1.7 100 100 SSW 8 13 29.95 1014 0.25 0.402335 0 0
7:35 am 07:35 Cloudy with Fog 35 1.7 35 1.7 100 100 SSW 12 19 29.95 1014 0.5 0.80467 0 0
7:55 am 07:55 Cloudy with Fog 35 1.6 35 1.6 100 100 SW 7 11 29.95 1014 0.5 0.80467 0 0
8:15 am 08:15 Cloudy with Fog 35 1.5 35 1.5 100 100 SSW 12 19 29.95 1014 0.25 0.402335 0 0
8:35 am 08:35 Cloudy with Fog 35 1.4 35 1.4 100 100 SSW 9 15 29.94 1014 5 8.0467 0 0
8:55 am 08:55 Cloudy with Fog 34 1.2 34 1.2 100 100 SSW 9 15 29.95 1014 5 8.0467 0 0
9:15 am 09:15 Cloudy with Fog 34 1 34 1 100 100 SSW 13 20 29.95 1014 5 8.0467 0 0
9:35 am 09:35 Cloudy with Fog 34 1 34 1 100 100 SSW 9 15 29.94 1014 5 8.0467 0 0
9:55 am 09:55 Cloudy with Fog 34 1.1 34 1.1 100 100 SSW 9 15 29.94 1014 0.25 0.402335 0 0
10:15 am 10:15 Cloudy with Fog 34 1.2 34 1.2 100 100 SSW 13 20 29.94 1014 0.25 0.402335 0 0
10:35 am 10:35 Cloudy with Fog 35 1.5 35 1.5 100 100 SSW 14 22 29.93 1014 0.25 0.402335 0 0
10:55 am 10:55 Cloudy with Fog 35 1.6 35 1.6 100 100 SSW 13 20 29.94 1014 0.5 0.80467 0 0
11:15 am 11:15 Cloudy with Mist and Fog 36 2 36 2 100 100 SSW 15 24 29.93 1013 0.75 1.207005 0 0
11:35 am 11:35 Cloudy with Mist and Fog 36 2.2 36 2.2 100 100 SSW 15 24 29.92 1013 1 1.60934 0 0
11:55 am 11:55 Cloudy with Mist and Fog 36 2.2 36 2.2 100 100 S 17 28 29.91 1013 1 1.60934 0 0
12:15 pm 12:15 Cloudy with Mist and Fog 37 2.7 37 2.7 100 100 S 17 28 29.9 1012 1.75 2.816345 0 0
12:35 pm 12:35 Cloudy with Mist and Fog 38 3.1 38 3.1 100 100 SSW 15 24 29.89 1012 5 8.0467 0 0
12:55 pm 12:55 Cloudy 38 3.5 38 3.5 100 100 SW 10 17 29.86 1011 7 11.26538 0 0
1:15 pm 13:15 Cloudy 39 4 39 3.8 99 99 SSW 13 20 29.85 1011 10 16.0934 0 0
1:35 pm 13:35 Cloudy 40 4.6 39 3.8 95 95 SSW 14 22 29.83 1010 10 16.0934 0 0
1:55 pm 13:55 Cloudy 41 5.1 39 3.9 92 92 S 14 22 29.82 1010 10 16.0934 0 0
2:15 pm 14:15 Cloudy 42 5.4 39 3.9 90 90 SSW 14 22 29.8 1009 10 16.0934 0 0
2:35 pm 14:35 Cloudy 43 6 40 4.4 90 90 SSW 10 17 29.79 1009 10 16.0934 0 0
2:55 pm 14:55 Partly Cloudy 45 7 40 4.5 84 84 SSW 12 19 29.77 1008 10 16.0934 0 0
3:15 pm 15:15 Sunny 46 8 40 4.6 79 79 SW 9 15 29.76 1008 10 16.0934 0 0
3:35 pm 15:35 Sunny 47 8.5 40 4.7 77 77 SSW 10 17 29.76 1008 10 16.0934 0 0
3:55 pm 15:55 Sunny 48 9.1 40 4.5 73 73 SSW 10 17 29.75 1007 10 16.0934 0 0
4:15 pm 16:15 Sunny 49 9.5 40 4.4 71 71 SSW 13 20 29.73 1007 10 16.0934 0 0
4:35 pm 16:35 Sunny 50 10 40 4.5 69 69 SSW 10 17 29.72 1007 10 16.0934 0 0
4:55 pm 16:55 Sunny 50 10.1 40 4.2 67 67 S 8 13 29.71 1006 10 16.0934 0 0
5:15 pm 17:15 Sunny 49 9.6 39 4.1 69 69 S 9 15 29.72 1006 10 16.0934 0 0
5:35 pm 17:35 Sunny 48 9 39 3.7 70 70 S 12 19 29.72 1006 10 16.0934 0 0
6:15 pm 18:15 Clear 44 6.6 37 2.6 76 76 SSW 7 11 29.74 1007 10 16.0934 0 0
6:35 pm 18:35 Clear 43 5.9 36 2.3 78 78 SSW 7 11 29.75 1007 10 16.0934 0 0
6:55 pm 18:55 Clear 40 4.2 35 1.6 83 83 SW 6 9 29.76 1008 10 16.0934 0 0
7:15 pm 19:15 Clear 40 4.5 36 2 84 84 SSW 7 11 29.76 1008 10 16.0934 0 0
7:35 pm 19:35 Clear 39 4 35 1.4 83 83 WSW 5 7 29.77 1008 10 16.0934 0 0
7:55 pm 19:55 Clear 41 4.9 36 2.4 84 84 SW 8 13 29.76 1008 10 16.0934 0 0
8:15 pm 20:15 Clear 40 4.3 35 1.9 85 85 SW 3 6 29.76 1008 10 16.0934 0 0
8:35 pm 20:35 Clear 39 4 35 1.6 85 85 SW 3 6 29.76 1008 10 16.0934 0 0
8:55 pm 20:55 Clear 40 4.2 35 1.6 83 83 SW 3 6 29.75 1008 10 16.0934 0 0
9:15 pm 21:15 Clear 40 4.2 35 1.9 85 85 SW 6 9 29.74 1007 10 16.0934 0 0
9:35 pm 21:35 Clear 40 4.2 35 1.7 84 84 Calm 29.74 1007 10 16.0934 0 0
9:55 pm 21:55 Clear 35 1.9 32 0.2 89 89 SSW 6 9 29.77 1008 10 16.0934 0 0
10:15 pm 22:15 Clear 37 3 32 0.2 82 82 SSE 8 13 29.76 1008 10 16.0934 0 0
10:35 pm 22:35 Clear 37 2.7 34 1.1 89 89 SSW 9 15 29.76 1008 10 16.0934 0 0
10:55 pm 22:55 Clear 38 3.5 34 1 84 84 SSW 8 13 29.75 1007 10 16.0934 0 0
11:15 pm 23:15 Clear 38 3.2 34 0.9 85 85 SSW 7 11 29.74 1007 10 16.0934 0 0
11:35 pm 23:35 Clear 39 4 34 1.3 83 83 SW 5 7 29.73 1007 10 16.0934 0 0
11:55 pm 23:55 Clear 40 4.5 34 1.2 79 79 SW 5 7 29.72 1006 10 16.0934 0 0

Powered by AerisWeather